הכול
Dave Forest Airport (Cloudbreak, Western Australia) KFE מזג אוויר
|
Cloudbreak, Western Australia (KFE / YFDF)
שמים בהירים
רוחות שקטות |
|
28 °C |
KFE Terminal Area Forecast
| Date | Time (AWST) | Flight Rules | Wind Dir. | Speed | Type | Height AGL (ft) | Visibility | Remarks | ||||||
|---|---|---|---|---|---|---|---|---|---|---|---|---|---|---|
Recent KFE METAR history
| Date | Time (AWST) | Flight Rules | Wind Dir. | Speed | Type | Height AGL (ft) | Visibility | Temp (°C) | Temp (°F) | Dew Point (°C) | Dew Point (°F) | Rel. Humid. | Pressure | Density Altitude | Remarks |
|---|---|---|---|---|---|---|---|---|---|---|---|---|---|---|---|
| 03-ספט | 00:00 | VFR | 250° | 1 kt | 10000 meters | 28° | 82° | 4° | 39° | 22% | 1017 mb | 3,251 ft | |||
| 02-ספט | 23:00 | VFR | 270° | 8 kt | 10000 meters | 29° | 84° | 3° | 37° | 19% | 1017 mb | 3,371 ft | |||
| 02-ספט | 22:00 | VFR | 290° | 11 kt | 10000 meters | 30° | 86° | 4° | 39° | 19% | 1017 mb | 3,491 ft | |||
| 02-ספט | 21:00 | VFR | 340° | 6 kt | 10000 meters | 29° | 84° | 2° | 35° | 18% | 1017 mb | 3,371 ft | |||
| 02-ספט | 20:00 | VFR | 340° | 6 kt | 10000 meters | 29° | 84° | 1° | 33° | 16% | 1016 mb | 3,400 ft | |||
| 02-ספט | 19:00 | VFR | 340° | 5 kt | 10000 meters | 30° | 86° | 1° | 33° | 15% | 1016 mb | 3,520 ft | |||
| 02-ספט | 18:00 | VFR | 290° | 4 kt | 10000 meters | 33° | 91° | 2° | 35° | 14% | 1015 mb | 3,910 ft | |||
| 02-ספט | 17:00 | VFR | 340° | 4 kt | 10000 meters | 34° | 93° | 1° | 33° | 12% | 1015 mb | 4,030 ft | |||
| 02-ספט | 16:00 | VFR | 260° | 8 kt | 10000 meters | 35° | 95° | 2° | 35° | 13% | 1015 mb | 4,150 ft | |||
| 02-ספט | 15:00 | VFR | 330° | 6 kt | 10000 meters | 34° | 93° | 3° | 37° | 14% | 1015 mb | 4,030 ft | |||
| 02-ספט | 14:00 | VFR | 310° | 6 kt | 10000 meters | 34° | 93° | 3° | 37° | 14% | 1016 mb | 4,000 ft | |||
| 02-ספט | 13:00 | VFR | 320° | 8 kt | 10000 meters | 34° | 93° | 4° | 39° | 15% | 1017 mb | 3,971 ft | |||
| 02-ספט | 12:00 | VFR | 210° | 6 kt | 10000 meters | 34° | 93° | 4° | 39° | 15% | 1018 mb | 3,941 ft | |||
| 02-ספט | 11:00 | VFR | 240° | 5 kt | 10000 meters | 31° | 87° | 5° | 41° | 19% | 1019 mb | 3,552 ft | |||
| 02-ספט | 10:00 | VFR | 160° | 6 kt | 10000 meters | 30° | 86° | 5° | 41° | 21% | 1020 mb | 3,402 ft | |||
| 02-ספט | 09:00 | VFR | 160° | 9 kt | 10000 meters | 27° | 80° | 5° | 41° | 24% | 1020 mb | 3,042 ft | |||
| 02-ספט | 08:00 | VFR | 170° | 8 kt | 10000 meters | 25° | 77° | 4° | 39° | 26% | 1020 mb | 2,802 ft | |||
| 02-ספט | 07:00 | VFR | 200° | 5 kt | 10000 meters | 22° | 71° | 4° | 39° | 31% | 1019 mb | 2,472 ft | |||
| 02-ספט | 06:00 | VFR | 190° | 5 kt | 10000 meters | 22° | 71° | 3° | 37° | 29% | 1019 mb | 2,472 ft | |||
| 02-ספט | 05:00 | VFR | 230° | 3 kt | 10000 meters | 22° | 71° | 4° | 39° | 31% | 1018 mb | 2,501 ft | |||
| 02-ספט | 04:00 | VFR | 240° | 2 kt | 10000 meters | 22° | 71° | 3° | 37° | 29% | 1018 mb | 2,501 ft | |||
| 02-ספט | 03:00 | VFR | 250° | 3 kt | 10000 meters | 23° | 73° | 4° | 39° | 29% | 1018 mb | 2,621 ft | |||
| 02-ספט | 02:00 | VFR | 280° | 6 kt | 10000 meters | 24° | 75° | 4° | 39° | 27% | 1018 mb | 2,741 ft | |||
| 02-ספט | 01:00 | VFR | 290° | 8 kt | 10000 meters | 24° | 75° | 4° | 39° | 27% | 1018 mb | 2,741 ft |
כניסה לאתר
| אין תמיכה בדפדפן שלך. שדרג את הדפדפן שלך |
